Wind_Speed
2 2 2 3 4 5 5 6 7 8 9 10 10 10 11 12 13 14 15 15 17 18 19 20 20 21 22 22 23 23 23 24 24 25 24 23 23 24 24 25 26 26 27 27
4 3 2 3 4 4 5 6 7 8 9 10 10 10 11 13 14 14 15 17 19 19 20 21 22 22 23 23 23 24 24 24 24 23 23 22 22 23 25 26 26 26 27 27
3 3 3 3 4 5 5 6 7 8 9 9 9 10 12 13 14 15 16 17 18 19 20 21 22 22 23 23 24 24 25 25 24 23 23 23 23 24 25 25 26 26 26 26
3 3 4 4 5 6 7 7 8 9 8 9 8 10 12 13 14 16 17 17 18 19 20 21 21 21 22 23 23 24 25 25 23 23 23 22 23 24 24 26 27 26 26 26
4 5 5 6 6 6 8 8 9 8 8 9 10 10 13 14 15 16 17 18 18 19 20 20 21 21 22 23 23 23 24 24 23 23 23 22 23 24 24 24 25 25 26 27
5 6 6 7 7 6 7 8 7 7 7 9 11 11 14 15 15 16 17 18 19 20 20 20 21 21 22 23 23 24 23 23 23 23 23 24 24 23 24 24 24 25 26 27
6 7 7 8 8 7 7 7 8 8 8 10 12 13 15 16 16 17 18 19 19 20 20 20 21 21 22 22 22 23 23 23 23 23 24 25 25 24 25 25 27 27 27 27
5 7 8 8 8 8 9 9 9 10 11 12 14 15 16 17 18 19 19 19 19 19 20 20 21 21 21 21 22 23 23 22 23 24 25 26 26 25 25 26 27 27 27 26
5 7 8 8 9 10 11 11 11 12 12 13 13 15 17 17 18 19 19 19 19 19 20 20 21 21 21 22 23 23 23 24 24 24 25 25 25 25 25 24 25 26 25 24
6 7 8 9 11 11 12 13 13 12 13 13 14 14 16 18 18 18 18 18 19 19 20 20 20 20 21 21 22 23 24 24 24 23 23 24 24 24 23 23 24 24 24 23
8 9 10 11 12 13 13 13 13 14 14 14 14 15 18 18 18 18 18 19 19 20 20 20 20 20 21 22 22 23 23 22 21 21 22 22 22 22 23 24 24 24 22 22
9 10 11 12 13 13 12 12 13 14 15 15 16 17 18 18 19 18 19 19 19 20 20 20 21 21 21 22 22 23 23 21 21 21 22 22 21 21 22 23 23 22 21 21
11 11 12 13 14 14 13 14 14 15 16 16 16 17 19 19 18 18 18 19 20 20 20 21 22 22 22 23 23 23 22 21 21 21 21 21 21 21 20 21 21 21 21 21
12 12 12 13 14 14 14 15 15 15 16 17 16 18 19 19 19 19 20 21 21 21 21 21 22 23 23 23 23 23 22 22 22 21 21 21 21 20 20 20 20 20 20 20
13 13 13 13 14 14 15 15 16 16 16 17 18 19 20 20 20 20 21 21 21 21 21 22 22 22 22 22 23 23 21 21 22 21 20 20 20 20 19 19 20 19 19 20
14 13 13 14 15 15 15 16 16 17 17 18 19 19 19 19 19 20 20 20 21 21 21 22 22 22 22 22 22 22 21 21 21 21 20 20 19 19 18 18 19 19 20 21
13 14 14 15 15 15 16 17 17 17 17 18 19 19 19 19 20 20 20 20 21 21 22 22 21 23 23 23 22 21 21 20 20 20 19 19 19 18 18 19 19 19 20 20
15 15 15 16 16 16 17 17 18 18 19 19 19 20 20 20 20 21 21 21 22 22 23 23 23 23 23 22 22 21 21 20 20 19 19 19 19 19 19 19 19 19 20 20
16 16 16 16 17 18 19 19 19 20 20 20 20 21 21 20 21 21 22 23 23 23 23 23 23 23 23 22 21 21 20 20 20 20 19 18 18 18 18 18 19 19 19 19
16 17 17 17 18 19 21 21 21 21 21 21 21 22 21 21 21 22 22 23 23 23 23 23 23 22 22 21 20 21 20 20 20 20 19 18 18 18 18 17 17 18 18 17
17 18 18 19 20 20 22 22 22 21 22 22 22 22 22 22 22 22 23 23 23 23 23 23 22 22 21 21 21 20 20 20 20 19 18 17 17 17 17 16 16 16 16 16
19 19 19 20 20 21 22 22 22 22 22 22 23 23 23 22 22 22 22 23 23 23 22 22 22 22 22 21 21 21 20 19 19 18 17 17 17 17 16 15 15 15 15 15
20 19 20 20 20 21 22 22 22 23 23 23 23 23 23 23 23 23 23 23 23 23 23 22 21 21 20 20 20 20 19 18 17 16 16 16 16 15 15 15 14 14 15 15
21 20 20 21 21 21 21 22 22 23 23 24 24 24 23 23 23 23 23 23 23 23 22 21 20 20 19 19 19 19 18 17 16 16 15 14 14 14 14 14 14 15 15 15
22 22 21 21 21 22 22 23 23 24 24 24 24 24 24 24 23 24 23 23 22 22 21 20 19 19 18 18 18 17 16 16 15 14 14 13 13 14 14 14 15 15 15 16
22 22 22 22 22 23 23 24 24 24 25 25 24 24 24 24 23 23 23 22 21 20 19 18 17 17 16 17 17 16 16 15 14 14 14 13 13 13 13 14 14 14 15 15
Wind_Direction
33 18 298 255 252 251 259 261 260 260 264 270 272 272 271 272 273 275 276 280 283 285 287 285 286 287 289 290 290 291 292 292 292 293 290 288 287 289 288 286 287 289 289 290
22 343 306 282 275 277 274 275 275 271 274 278 276 273 274 277 280 283 283 284 286 288 289 288 288 288 290 290 291 291 292 293 295 294 292 290 292 292 290 287 288 290 290 290
9 339 328 308 294 295 294 285 281 280 283 285 277 279 282 285 287 288 288 288 288 290 290 289 289 289 289 291 292 291 292 292 293 293 293 294 294 293 288 287 288 288 290 293
355 335 320 314 306 296 293 292 284 283 287 288 281 285 288 290 291 291 290 290 292 293 292 290 291 291 292 293 293 294 294 293 291 292 292 293 293 293 291 290 288 288 291 293
343 339 321 308 304 301 294 297 294 287 284 283 285 288 292 295 294 294 293 293 296 297 297 294 292 292 293 294 295 296 295 295 295 294 291 291 291 292 293 294 292 292 292 293
329 327 326 324 316 306 308 305 304 301 298 294 292 294 298 299 298 297 296 297 298 301 300 295 294 295 295 295 295 296 297 297 296 294 293 291 291 293 295 296 297 297 296 296
325 323 328 328 328 316 316 318 317 313 302 293 293 296 299 302 300 301 302 302 303 303 301 298 298 297 298 298 298 298 300 298 297 294 294 294 294 295 297 299 299 299 298 297
315 318 323 325 324 322 320 317 307 303 297 292 296 300 302 303 301 303 304 304 304 305 301 299 299 297 298 298 299 300 300 299 297 295 295 295 297 297 298 299 299 299 298 298
311 311 318 319 319 318 319 317 310 307 306 303 299 303 302 302 300 303 305 304 305 305 301 300 300 299 300 299 299 301 301 301 302 300 298 299 299 297 297 297 299 299 298 299
307 310 314 319 324 320 318 316 314 314 311 307 304 302 301 304 305 306 306 305 306 305 303 302 301 300 302 302 302 303 305 305 305 303 302 301 299 297 297 298 300 299 299 300
311 312 316 319 321 320 318 317 316 313 309 306 303 301 303 305 308 308 307 305 306 307 306 306 306 304 304 306 306 304 306 305 304 306 307 306 302 299 297 299 301 303 302 303
319 318 315 316 318 318 316 317 318 316 311 306 304 300 303 307 309 310 309 309 310 311 310 310 310 307 307 308 308 307 308 305 307 309 310 309 307 305 303 302 302 304 304 304
323 323 322 320 319 320 319 318 319 317 313 308 306 303 304 305 309 309 309 310 311 312 312 311 312 310 309 310 310 310 309 308 311 311 310 309 307 307 305 304 305 307 306 306
318 320 318 314 314 315 316 319 321 319 318 312 308 305 305 306 307 308 309 310 310 311 313 314 313 311 310 310 311 311 308 309 311 310 309 308 308 308 305 303 304 306 308 308
315 318 317 314 314 315 316 317 318 317 315 315 313 310 308 307 307 308 311 312 313 315 314 314 314 313 312 311 312 313 312 310 310 310 307 307 308 310 307 305 305 305 306 307
315 316 318 316 316 317 319 320 318 318 316 318 317 314 312 311 309 310 312 313 314 315 315 315 314 314 314 313 313 314 312 310 310 309 308 308 310 311 309 309 308 307 306 305
314 316 317 317 316 317 320 321 319 317 318 318 317 316 314 311 310 311 312 311 310 313 314 316 316 316 316 316 315 315 314 313 313 312 311 310 310 310 309 309 307 308 307 306
311 313 314 316 315 316 319 321 320 319 316 316 315 315 314 311 310 310 310 311 310 311 312 314 315 315 315 315 315 315 315 316 316 315 315 314 313 312 310 310 309 309 309 309
306 308 310 312 313 314 317 320 319 318 317 316 316 316 315 311 310 310 310 311 311 310 311 312 313 314 315 315 316 317 318 318 316 316 316 316 316 315 313 313 314 314 313 312
303 305 307 310 312 312 314 318 317 315 315 315 316 316 315 311 309 309 309 311 309 309 311 312 313 313 315 317 318 319 319 317 316 316 316 316 316 316 316 316 317 318 317 317
304 305 306 309 312 312 313 315 314 314 314 314 315 316 315 314 311 310 310 311 311 310 311 312 313 313 314 317 318 319 318 318 317 317 317 318 318 317 318 318 320 321 322 322
300 303 305 307 310 310 311 313 313 312 312 312 314 315 315 313 312 311 311 311 312 311 311 311 312 312 314 316 318 320 319 319 318 318 318 319 319 319 321 323 325 327 327 326
297 300 301 303 305 306 308 310 311 312 312 312 313 314 314 313 312 312 310 310 311 311 311 311 311 312 314 316 318 320 321 321 322 322 322 321 320 321 324 327 330 330 328 328
297 298 299 301 303 303 304 307 309 310 312 313 313 314 314 314 314 313 312 311 313 312 311 308 308 309 312 316 319 320 321 321 321 323 324 322 322 323 326 330 332 332 330 330
296 297 298 298 301 301 303 305 308 310 312 313 313 314 314 314 315 314 312 312 312 313 311 309 306 307 310 315 318 321 323 322 322 325 326 325 325 326 327 329 331 331 332 332
292 295 297 299 299 300 302 305 306 308 310 311 312 312 313 312 312 314 313 313 314 313 312 310 307 307 311 314 316 318 320 322 324 325 324 325 327 327 328 331 334 334 335 337
Height
5856 5857 5857 5857 5857 5857 5857 5857 5857 5856 5856 5855 5855 5855 5854 5854 5853 5852 5851 5850 5849 5848 5846 5845 5844 5842 5841 5840 5838 5837 5835 5833 5831 5828 5826 5825 5823 5821 5819 5817 5814 5812 5810 5808
5858 5858 5857 5856 5856 5856 5856 5856 5856 5855 5854 5854 5853 5853 5852 5851 5850 5849 5848 5847 5845 5844 5842 5840 5839 5838 5836 5835 5833 5831 5829 5827 5825 5823 5821 5819 5817 5815 5813 5811 5808 5807 5804 5802
5858 5858 5856 5856 5855 5855 5855 5855 5854 5853 5852 5852 5852 5852 5850 5849 5847 5846 5844 5843 5841 5839 5838 5836 5834 5832 5831 5829 5828 5826 5824 5822 5820 5818 5816 5813 5811 5809 5807 5805 5803 5801 5798 5796
5857 5856 5855 5855 5854 5854 5854 5853 5852 5851 5851 5851 5851 5850 5848 5846 5844 5843 5841 5839 5837 5835 5833 5831 5829 5827 5825 5824 5822 5820 5818 5816 5814 5812 5810 5808 5806 5804 5802 5799 5797 5795 5792 5790
5857 5855 5855 5854 5853 5852 5852 5851 5850 5849 5849 5849 5848 5848 5847 5843 5841 5839 5837 5835 5833 5830 5828 5826 5824 5822 5820 5818 5816 5814 5812 5810 5808 5806 5804 5802 5800 5799 5796 5793 5791 5788 5786 5783
5856 5855 5853 5852 5851 5850 5849 5849 5848 5847 5847 5847 5846 5845 5843 5840 5837 5835 5833 5831 5828 5826 5823 5821 5819 5817 5815 5813 5811 5809 5807 5805 5803 5801 5799 5797 5795 5793 5790 5788 5785 5782 5780 5777
5855 5854 5852 5851 5850 5849 5847 5847 5847 5846 5846 5845 5842 5841 5839 5836 5833 5831 5828 5826 5824 5821 5819 5816 5814 5812 5810 5808 5806 5803 5802 5800 5798 5795 5793 5791 5789 5787 5784 5782 5779 5776 5773 5770
5855 5854 5851 5849 5848 5846 5845 5845 5845 5844 5843 5841 5838 5836 5835 5831 5829 5826 5824 5821 5819 5817 5814 5812 5809 5807 5805 5803 5801 5798 5796 5794 5792 5790 5788 5786 5783 5781 5779 5776 5773 5769 5766 5763
5853 5853 5850 5847 5846 5845 5843 5841 5841 5839 5838 5836 5835 5832 5830 5827 5824 5822 5820 5817 5815 5812 5810 5807 5805 5802 5800 5798 5796 5793 5791 5788 5786 5783 5781 5779 5777 5775 5772 5770 5766 5763 5760 5757
5851 5850 5848 5846 5844 5842 5841 5839 5837 5836 5834 5833 5832 5829 5827 5823 5821 5818 5816 5813 5810 5808 5805 5802 5800 5797 5795 5793 5790 5788 5785 5782 5780 5777 5775 5772 5770 5768 5766 5763 5760 5757 5754 5751
5848 5848 5846 5844 5841 5840 5838 5836 5834 5833 5831 5829 5828 5828 5822 5819 5816 5814 5811 5809 5806 5803 5800 5797 5795 5792 5790 5787 5785 5782 5779 5777 5774 5772 5769 5767 5764 5762 5760 5758 5754 5751 5747 5744
5846 5845 5843 5841 5839 5837 5835 5833 5831 5830 5827 5825 5823 5824 5817 5815 5812 5809 5807 5804 5801 5798 5795 5793 5790 5787 5785 5782 5779 5776 5774 5771 5769 5767 5764 5761 5759 5756 5754 5751 5748 5745 5742 5739
5843 5842 5841 5838 5838 5835 5832 5830 5828 5826 5824 5821 5820 5820 5813 5811 5808 5806 5803 5800 5797 5794 5791 5788 5785 5782 5780 5776 5773 5771 5768 5766 5764 5761 5759 5756 5753 5751 5748 5746 5743 5740 5737 5734
5841 5839 5839 5837 5834 5831 5829 5827 5825 5823 5821 5818 5816 5813 5810 5807 5804 5802 5799 5796 5793 5790 5787 5784 5781 5777 5774 5771 5768 5766 5763 5761 5758 5756 5753 5750 5748 5745 5743 5740 5738 5735 5732 5729
5838 5837 5834 5832 5830 5828 5826 5824 5821 5819 5817 5814 5812 5808 5805 5803 5800 5797 5795 5792 5788 5786 5783 5779 5776 5773 5770 5767 5764 5761 5758 5756 5753 5750 5748 5745 5743 5740 5737 5735 5732 5730 5727 5725
5835 5833 5831 5829 5827 5825 5822 5820 5818 5815 5813 5810 5807 5804 5801 5798 5796 5793 5790 5788 5785 5782 5778 5775 5772 5768 5765 5762 5759 5756 5753 5751 5748 5745 5743 5740 5737 5735 5732 5729 5727 5725 5722 5719
5832 5830 5828 5826 5824 5821 5819 5817 5814 5812 5809 5806 5803 5801 5797 5794 5792 5789 5786 5783 5780 5777 5774 5771 5768 5764 5761 5757 5754 5751 5748 5745 5743 5740 5737 5735 5732 5729 5726 5724 5722 5719 5717 5714
5828 5826 5824 5822 5821 5818 5818 5813 5811 5808 5805 5802 5799 5796 5793 5790 5787 5785 5782 5779 5776 5773 5770 5766 5763 5760 5756 5753 5749 5746 5743 5740 5738 5735 5732 5730 5727 5724 5721 5719 5716 5714 5711 5708
5825 5823 5820 5819 5816 5814 5812 5809 5806 5803 5800 5797 5795 5792 5789 5785 5783 5780 5777 5774 5771 5768 5765 5761 5758 5755 5751 5748 5745 5741 5738 5736 5733 5730 5728 5725 5722 5719 5716 5714 5711 5708 5706 5703
5821 5819 5817 5814 5812 5810 5808 5805 5801 5800 5796 5793 5790 5787 5784 5781 5779 5776 5772 5769 5766 5763 5759 5756 5753 5750 5747 5743 5740 5737 5734 5731 5728 5725 5723 5720 5717 5715 5712 5709 5706 5704 5701 5698
5816 5814 5812 5810 5807 5805 5802 5799 5797 5796 5793 5788 5785 5782 5779 5776 5773 5771 5767 5764 5761 5758 5754 5751 5748 5744 5741 5739 5735 5732 5729 5726 5723 5720 5718 5715 5713 5710 5707 5705 5702 5699 5696 5693
5811 5809 5807 5805 5803 5802 5797 5794 5793 5790 5787 5783 5780 5777 5774 5771 5768 5765 5762 5759 5756 5752 5749 5746 5743 5740 5737 5734 5731 5728 5724 5721 5718 5715 5713 5711 5708 5706 5703 5700 5698 5695 5692 5690
5806 5805 5802 5801 5800 5795 5792 5789 5787 5784 5781 5778 5776 5773 5769 5766 5763 5760 5757 5754 5750 5747 5744 5741 5738 5735 5733 5730 5727 5724 5720 5717 5714 5712 5709 5707 5704 5702 5699 5697 5694 5692 5689 5686
5800 5798 5796 5794 5792 5789 5787 5784 5781 5779 5776 5773 5771 5767 5764 5761 5758 5755 5752 5749 5745 5742 5739 5736 5733 5731 5729 5726 5723 5719 5716 5713 5711 5708 5706 5703 5701 5698 5696 5693 5691 5688 5686 5683
5794 5792 5790 5789 5787 5784 5781 5779 5776 5773 5771 5768 5765 5762 5759 5756 5753 5750 5746 5743 5740 5737 5734 5731 5729 5727 5724 5722 5719 5715 5713 5710 5708 5705 5702 5700 5697 5695 5693 5690 5688 5685 5683 5680
5788 5786 5785 5783 5781 5778 5776 5773 5771 5768 5765 5763 5760 5757 5754 5751 5748 5744 5741 5738 5735 5732 5730 5727 5725 5723 5720 5718 5715 5712 5709 5707 5705 5702 5700 5697 5695 5692 5690 5688 5685 5683 5680 5677